Everett, WA

2:52 AM PDT on September 21, 2017 (GMT -0700)
Snohomish County

Weather History for KPAE - February, 2012

Change the Weather History Date:

Sunday, February 5, 2012

  Actual Average Record
Temperature  
Mean Temperature 46 °F -  
Max Temperature 53 °F 47 °F 66 °F (1993)
Min Temperature 39 °F 31 °F 6 °F (1989)
Degree Days  
Heating Degree Days 19    
Moisture  
Dew Point 28 °F    
Average Humidity 53    
Maximum Humidity 79    
Minimum Humidity 37    
Precipitation  
Precipitation 0.00 in - - ()
Sea Level Pressure  
Sea Level Pressure 30.20 in    
Wind  
Wind Speed 6 mph (ENE)    
Max Wind Speed 9 mph    
Max Gust Speed -    
Visibility 10 miles    
Events      
Averages and records for this station are not official NWS values.
T = Trace of Precipitation, MM = Missing Value Source: NWS Daily Summary

Daily Weather History Graph

Daily Weather History Graph

Search for Another Location

Airport or City:

Trip Planner

Search our weather history database for the weather conditions in past years. The results will help you decide how hot, cold, wet, or windy it might be!

Date:

Astronomy

Feb. 05, 2012 Rise Set
Actual Time 7:31 AM PST 5:15 PM PST
Civil Twilight 6:58 AM PST 5:48 PM PST
Nautical Twilight 6:21 AM PST 6:25 PM PST
Astronomical Twilight 5:45 AM PST 7:01 PM PST
Moon 3:14 PM PST (2/5) 5:52 AM PST (2/5)
Length of Visible Light 10h 49m
Length of Day
9h 43m
Waxing Gibbous, 95% of the Moon is Illuminated
Feb 5
Waxing Gibbous
Feb 7
Full
Feb 14
Last Quarter
Feb 21
New
Feb 29
First Quarter

Hourly Weather History & Observations

Time (PST) Temp. Windchill Dew Point Humidity Pressure Visibility Wind Dir Wind Speed Gust Speed Precip Events Conditions
12:53 AM 46.9 °F - 21.9 °F 37% 30.20 in 10.0 mi ESE 8.1 mph - N/A   Clear
1:53 AM 46.0 °F 42.5 °F 21.9 °F 39% 30.21 in 10.0 mi ESE 6.9 mph - N/A   Clear
2:53 AM 46.0 °F 41.9 °F 23.0 °F 40% 30.22 in 10.0 mi ESE 8.1 mph - N/A   Clear
3:53 AM 45.0 °F 40.6 °F 23.0 °F 42% 30.22 in 10.0 mi ESE 8.1 mph - N/A   Clear
4:53 AM 45.0 °F 40.6 °F 23.0 °F 42% 30.22 in 10.0 mi ESE 8.1 mph - N/A   Clear
5:53 AM 44.1 °F 39.5 °F 23.0 °F 43% 30.21 in 10.0 mi ESE 8.1 mph - N/A   Clear
6:53 AM 43.0 °F 39.5 °F 24.1 °F 47% 30.21 in 10.0 mi East 5.8 mph - N/A   Clear
7:53 AM 43.0 °F 39.5 °F 24.1 °F 47% 30.22 in 10.0 mi East 5.8 mph - N/A   Clear
8:53 AM 46.0 °F 41.9 °F 24.1 °F 42% 30.23 in 10.0 mi East 8.1 mph - N/A   Clear
9:53 AM 48.9 °F - 25.0 °F 39% 30.25 in 10.0 mi Calm Calm - N/A   Clear
10:53 AM 50.0 °F - 26.1 °F 39% 30.24 in 10.0 mi SSE 5.8 mph - N/A   Clear
11:53 AM 51.1 °F - 28.9 °F 43% 30.24 in 10.0 mi Calm Calm - N/A   Clear
12:53 PM 53.1 °F - 30.0 °F 41% 30.22 in 10.0 mi West 3.5 mph - N/A   Clear
1:53 PM 52.0 °F - 28.0 °F 40% 30.22 in 10.0 mi North 3.5 mph - N/A   Clear
2:53 PM 48.9 °F - 30.0 °F 48% 30.21 in 10.0 mi North 6.9 mph - N/A   Clear
3:53 PM 46.9 °F - 35.1 °F 63% 30.20 in 10.0 mi North 9.2 mph - N/A   Clear
4:53 PM 46.0 °F 42.5 °F 34.0 °F 63% 30.19 in 10.0 mi North 6.9 mph - N/A   Clear
5:53 PM 44.1 °F 40.1 °F 34.0 °F 68% 30.19 in 10.0 mi NNE 6.9 mph - N/A   Clear
6:53 PM 43.0 °F 41.3 °F 32.0 °F 65% 30.18 in 10.0 mi North 3.5 mph - N/A   Clear
7:53 PM 42.1 °F 39.2 °F 35.1 °F 76% 30.18 in 10.0 mi NNE 4.6 mph - N/A   Clear
8:53 PM 41.0 °F 39.0 °F 34.0 °F 76% 30.17 in 10.0 mi NNE 3.5 mph - N/A   Clear
9:53 PM 41.0 °F - 34.0 °F 76% 30.16 in 10.0 mi Calm Calm - N/A   Clear
10:53 PM 39.9 °F - 34.0 °F 79% 30.16 in 10.0 mi Calm Calm - N/A   Clear
11:53 PM 39.0 °F - 33.1 °F 79% 30.15 in 10.0 mi Calm Calm - N/A   Clear